{"data":{"norad_id":59107,"intl_designator":"2024-043K","name":"BRO-13","alt_names":[],"object_type":"PAYLOAD","status":"ACTIVE","operator":null,"country":"FR","launch_date":"2024-03-04","launch_site_code":"AFWTR","launch_vehicle":null,"mission":null,"orbit_class":"UNKNOWN","rcs_meters":null,"size_class":null,"mass_kg":null,"dimensions":null,"purposes":[],"wikipedia_slug":null,"has_3d_model":false,"image_url":null,"decayed_at":null,"tle_current":{"epoch":"2026-05-25T03:49:07.592160Z","epoch_age_seconds":64607,"freshness":"FRESH","line1":"1 59107U 24043K   26145.15911565  .00000937  00000+0  87603-4 0  9992","line2":"2 59107  97.8461 276.1100 0010175  78.5048 281.7315 14.96526474121179","mean_motion":14.96526474,"eccentricity":0.0010175,"inclination_deg":97.8461,"raan_deg":276.11,"arg_perigee_deg":78.5048,"mean_anomaly_deg":281.7315,"bstar":8.7603e-5,"rev_number":12117,"period_min":96.222821648526,"perigee_km":570.56124490509,"apogee_km":584.71624854968,"semimajor_km":6955.7757467274,"source":"CELESTRAK","updated_at":"2026-05-25T13:38:01.191415Z"}}}